Regional Weather Roundup
Issued by NWS Sioux Falls, SD

Home | Current Version | Previous Version | Text Only | Print | Product List | Glossary Off
Versions: 1 2 3 4 5 6 7 8 9 10 11 12 13 14 15 16 17 18 19 20 21 22 23 24 25 26 27 28 29 30 31 32 33 34 35 36 37 38 39 40 41 42 43 44 45 46 47 48 49 50

055
ASUS43 KFSD 220802
RWRFSD

WEATHER ROUNDUP FOR SE SOUTH DAKOTA/SW MINNESOTA/NW IOWA
NATIONAL WEATHER SERVICE SIOUX FALLS SD
300 AM CDT SUN OCT 22 2017

NOTE: "FAIR" INDICATES FEW OR NO CLOUDS BELOW 12,000 FEET WITH NO
SIGNIFICANT WEATHER AND OR OBSTRUCTIONS TO VISIBILITY.


SDZ038>040-050-052>070-220900-
SOUTHEAST SOUTH DAKOTA

CITY           SKY/WX    TMP DP  RH WIND       PRES   REMARKS
BROOKINGS      CLEAR     41  36  82 SW6       29.93S
CHAMBERLAIN    CLEAR     40  32  74 W3        29.98S
HURON          CLEAR     41  35  79 SW9       29.95R
MADISON        FAIR      39  37  93 SW8       29.95S
MITCHELL       CLEAR     39  34  82 CALM      29.98R
SIOUX FALLS    CLOUDY    42  37  82 CALM      29.95F
WINNER         FAIR      40  28  62 SW9       30.00S
YANKTON        CLEAR     41  34  76 CALM      29.98F
$$

MNZ071-072-080-081-089-090-097-098-220900-
SOUTHWEST MINNESOTA

CITY           SKY/WX    TMP DP  RH WIND       PRES   REMARKS
FAIRMONT       CLOUDY    47  41  80 W10       29.94S
JACKSON        CLOUDY    43  37  81 W6        29.95S
LUVERNE        CLOUDY    41  34  75 CALM      29.95F
MARSHALL       MOCLDY    46  39  76 W10       29.92S
MONTEVIDEO     PTCLDY    46  39  76 W5        29.91R
PIPESTONE      CLOUDY    37  36  93 CALM      29.93F
REDWOOD FALLS  CLOUDY    47  38  71 W10       29.90F
TRACY          PTCLDY    46  40  79 W7        29.92F
WORTHINGTON    PTCLDY    41  37  86 W5        29.94F
$$

IAZ001>003-012>014-020>022-031-032-NEZ013-014-SDZ071-220900-
NORTHWEST IOWA

CITY           SKY/WX    TMP DP  RH WIND       PRES   REMARKS
DENISON        CLOUDY    46  43  87 CALM      30.00R
ESTHERVILLE    CLOUDY    45  41  86 W6        29.94S
LE MARS        CLOUDY    45  39  81 CALM      29.97S
ORANGE CITY    PTCLDY    43  39  87 W3        29.96S
SHELDON        PTCLDY    39  37  93 SW3       29.94F
SIOUX CITY     PTCLDY    42  39  89 W5        29.98F
SPENCER        CLOUDY    42  40  92 W3        29.96S
STORM LAKE     CLOUDY    45  41  87 W7        29.97S
$$

ABBREVIATIONS USED IN REMARKS
   TC - TEMPERATURE IN CELSIUS
  WCI - WIND CHILL INDEX
   HX - HEAT INDEX
  VSB - VISIBILITY





USA.gov is the U.S. government's official web portal to all federal, state and local government web resources and services.